Location: Newark
(43.0000°N, 1.6781°W)
Time: 21:43:51
(UTC+00:00)

Vanguard 1 - Pass Details

Date: 07 December 2021
Orbit: 652 x 3830 km, 34.2° (Epoch: 16 January)

Event Time Altitude Azimuth Distance (km) Brightness Sun altitude
Rises 21:06:41 0° 208° (SSW) 6,132 14.2 -49.2°
Reaches altitude 10° 21:10:43 10° 200° (SSW) 5,514 13.8 -49.9°
Enters shadow 21:15:36 22° 186° (S) 4,959 13.4 -50.8°
